Location: Plum
(40.5000°N, 79.7500°W)
Time: 00:52:28
(UTC-04:00)

MOZ.5/SAFIR/RUBIN 5/SL-8 - Visible Passes

Search period start: 29 July 2015 00:00
Search period end: 08 August 2015 00:00
Orbit: 679 x 707 km, 97.8° (Epoch: 28 July)

Date Brightness Start Highest point End Pass type
(mag) Time Alt. Az. Time Alt. Az. Time Alt. Az.
29 Jul 4.5 05:34:25 10° SSE 05:39:06 61° ENE 05:43:50 10° N visible
30 Jul 6.8 04:38:49 10° ESE 04:41:48 17° ENE 04:44:57 10° NNE visible
31 Jul 5.4 05:17:03 10° SE 05:21:29 40° ENE 05:25:57 10° N visible
01 Aug 7.1 04:22:45 10° E 04:24:18 12° ENE 04:26:06 10° NE visible
02 Aug 6.1 04:59:55 10° SE 05:03:53 28° ENE 05:07:56 10° N visible
03 Aug 4.3 05:38:56 10° SSE 05:43:40 69° ENE 05:48:24 10° N visible
04 Aug 6.7 04:43:03 10° ESE 04:46:19 19° ENE 04:49:43 10° NNE visible
05 Aug 5.1 05:21:30 10° SE 05:26:01 45° ENE 05:30:34 10° N visible
06 Aug 7.0 04:26:42 10° E 04:28:47 13° ENE 04:31:05 10° NE visible
07 Aug 5.9 05:04:17 10° SE 05:08:24 31° ENE 05:12:35 10° N visible
